Vorticity
1 0 2 3 4 6 7 5 6 6 6 6 11 22 21 16 8 -2 -3 9 17 13 17 13 10 10 6 10 2 4 2 -2 2 2 0 4 10 14 11 9 5 7 8 47
2 2 2 3 2 4 4 2 4 5 4 4 4 6 5 5 11 16 22 16 2 0 12 13 11 14 18 4 6 4 6 2 6 5 4 4 18 12 11 9 13 11 16 -4
1 1 3 4 4 5 4 5 3 2 0 2 2 6 2 2 2 4 3 6 15 23 12 -3 3 11 18 17 3 7 5 2 1 0 3 -0 1 2 -1 9 2 7 7 5
7 8 7 6 7 8 8 6 6 4 4 4 4 4 4 4 6 8 6 4 3 3 6 13 22 7 -3 12 30 5 6 3 2 5 5 3 1 4 3 4 7 7 -8 21
6 6 7 8 6 7 9 10 9 8 8 7 10 8 7 6 5 5 5 9 8 8 8 6 7 11 21 -2 17 21 16 6 5 2 7 6 4 3 1 -5 9 4 10 14
6 7 8 8 7 7 7 8 9 9 6 9 8 7 10 10 10 7 4 4 7 10 10 9 11 12 10 15 8 18 19 8 6 12 4 6 -2 6 5 2 4 4 15 -10
18 19 19 17 15 16 12 10 11 12 13 11 10 10 9 10 8 8 6 8 7 8 9 9 11 9 10 9 12 15 13 18 14 5 8 3 2 6 6 3 2 4 6 9
24 29 33 37 40 38 32 27 23 19 19 17 18 14 13 12 12 12 11 11 9 10 9 12 11 10 9 10 14 12 15 20 25 10 5 5 9 7 6 2 3 5 2 2
31 41 45 40 32 31 30 32 37 36 29 29 26 28 28 25 22 19 17 17 14 11 8 14 13 12 11 15 16 15 11 24 8 19 14 6 7 2 13 8 12 15 1 3
33 33 30 26 27 20 30 30 27 25 30 35 32 33 30 28 29 27 23 21 21 25 21 17 11 11 12 23 16 19 19 -1 22 21 23 15 10 4 8 11 3 12 0 15
23 23 21 24 29 17 -3 11 12 12 17 19 22 21 22 22 18 24 30 29 32 24 27 27 19 16 13 14 11 16 22 13 25 37 27 20 13 13 3 5 9 10 7 6
16 26 22 22 16 7 8 13 8 10 7 12 15 13 20 23 19 8 15 21 27 30 26 28 20 14 16 0 34 24 7 9 4 -13 4 23 33 32 23 14 2 13 1 12
20 30 29 26 24 8 1 6 3 9 16 13 14 12 18 17 23 17 21 23 23 27 31 26 25 16 12 18 -9 4 12 24 -4 15 23 32 21 8 4 18 20 24 23 12
19 20 12 6 9 -0 0 2 9 8 10 20 25 21 15 9 15 21 16 21 23 24 18 33 24 19 20 7 17 37 4 -2 9 21 12 8 8 29 39 17 9 -2 8 6
6 6 10 2 9 1 5 9 1 13 11 16 19 22 15 17 23 15 12 8 15 24 21 24 30 28 15 23 -18 1 9 21 10 11 14 7 5 6 21 8 -16 10 7 -1
13 10 13 2 3 -3 6 3 19 10 10 17 28 18 2 10 24 15 5 8 35 26 30 26 27 36 29 22 22 11 -7 -32 20 24 1 34 24 9 10 3 34 -13 35 31
12 11 8 10 18 21 23 15 12 14 19 17 18 7 15 16 13 -3 3 12 -6 20 -1 -10 -6 24 29 28 19 28 11 7 -42 -2 3 -14 30 24 20 15 11 7 23 5
17 19 14 15 10 9 11 18 29 28 16 22 24 22 15 13 12 8 5 16 -2 9 20 4 17 20 3 30 25 26 24 20 41 -0 -1 -2 18 4 22 7 18 21 25 18
-1 -3 5 11 16 23 31 34 28 20 7 10 15 16 18 13 8 8 8 17 13 1 12 27 -4 16 11 5 31 18 20 15 13 20 16 6 -2 26 16 8 17 41 19 8
27 27 27 16 27 25 21 10 20 -6 8 6 2 19 15 20 18 15 15 8 13 19 18 32 -10 10 19 13 9 18 13 27 27 23 14 13 3 -11 -12 23 10 10 10 34
25 24 18 25 19 19 22 18 -0 7 15 8 13 10 9 20 26 30 6 6 8 13 15 22 16 2 9 19 10 16 2 11 24 27 25 29 26 23 37 20 -24 -1 8 16
22 20 17 18 14 13 18 15 12 14 12 14 13 15 1 14 18 19 2 12 -0 3 11 18 14 26 17 16 25 12 13 7 14 12 16 19 17 17 15 8 23 25 0 -11
18 13 11 12 9 11 12 14 14 13 13 20 13 16 -1 12 12 10 10 13 0 -3 5 12 16 16 14 11 13 15 16 15 18 11 17 12 8 19 15 10 11 13 15 16
14 19 17 17 16 16 16 18 17 14 14 12 9 17 16 13 1 1 8 10 10 11 5 6 12 12 10 10 12 17 16 16 17 17 16 17 17 17 14 12 11 12 14 16
16 15 13 15 14 16 16 17 17 19 19 15 15 15 15 15 18 20 12 12 8 13 15 11 12 10 10 9 10 13 13 14 12 11 11 10 11 11 12 14 15 13 10 10
17 20 15 13 9 8 7 7 8 9 12 17 18 19 17 17 16 19 22 12 8 13 8 13 12 12 13 14 13 14 14 15 16 17 18 18 17 15 14 13 12 12 13 14
20 17 18 15 13 12 10 8 7 9 15 17 12 8 12 14 16 17 18 20 19 13 11 7 3 2 1 1 2 3 4 5 5 5 5 6 7 7 8 8 8 8 8 7
Height
5642 5638 5636 5633 5630 5627 5623 5621 5620 5618 5615 5614 5612 5613 5611 5611 5613 5609 5606 5607 5608 5609 5610 5610 5612 5617 5622 5624 5622 5622 5623 5618 5622 5627 5624 5623 5621 5620 5618 5616 5617 5614 5612 5611
5629 5624 5620 5616 5613 5612 5610 5606 5604 5602 5599 5600 5599 5597 5598 5595 5597 5595 5593 5593 5594 5594 5595 5594 5598 5602 5608 5609 5611 5610 5611 5605 5607 5613 5618 5617 5615 5615 5612 5611 5610 5609 5610 5610
5613 5609 5605 5600 5596 5591 5590 5589 5588 5586 5582 5582 5581 5580 5582 5581 5582 5580 5578 5579 5578 5577 5580 5583 5582 5587 5591 5594 5595 5595 5592 5593 5595 5601 5610 5608 5607 5607 5606 5604 5603 5606 5604 5607
5591 5586 5582 5579 5575 5571 5568 5564 5563 5564 5564 5564 5561 5558 5561 5562 5563 5562 5562 5564 5563 5561 5562 5564 5565 5570 5575 5579 5581 5581 5578 5581 5585 5590 5594 5595 5597 5598 5597 5596 5599 5596 5603 5601
5567 5561 5555 5552 5549 5548 5543 5539 5539 5539 5540 5539 5539 5538 5541 5538 5540 5542 5545 5544 5544 5544 5547 5548 5550 5552 5556 5561 5564 5563 5563 5567 5570 5572 5580 5583 5583 5585 5586 5590 5590 5590 5593 5597
5539 5533 5527 5523 5520 5518 5516 5512 5509 5510 5516 5514 5513 5514 5513 5515 5517 5521 5522 5522 5525 5527 5528 5528 5531 5534 5539 5542 5545 5549 5547 5553 5556 5556 5565 5564 5562 5573 5582 5582 5583 5586 5585 5594
5508 5502 5495 5491 5488 5484 5487 5484 5482 5481 5486 5488 5488 5488 5488 5490 5491 5493 5502 5500 5499 5507 5506 5509 5511 5514 5517 5522 5529 5530 5532 5536 5539 5541 5547 5542 5553 5562 5568 5568 5573 5576 5578 5582
5477 5473 5467 5460 5457 5454 5452 5452 5452 5452 5456 5459 5459 5458 5461 5465 5467 5469 5475 5478 5477 5480 5484 5486 5489 5494 5494 5502 5509 5514 5518 5521 5522 5522 5526 5531 5539 5546 5555 5556 5562 5565 5565 5572
5450 5445 5441 5439 5434 5432 5430 5427 5426 5425 5427 5436 5431 5436 5437 5438 5440 5445 5449 5451 5453 5456 5460 5465 5465 5472 5481 5484 5489 5499 5503 5505 5506 5508 5508 5510 5525 5537 5539 5542 5544 5556 5556 5561
5429 5426 5424 5422 5421 5419 5418 5416 5412 5412 5413 5415 5413 5414 5416 5414 5418 5420 5424 5427 5431 5430 5438 5444 5449 5455 5465 5467 5473 5482 5486 5489 5488 5492 5492 5496 5510 5514 5523 5526 5539 5544 5544 5546
5419 5416 5413 5412 5411 5412 5412 5409 5405 5404 5404 5404 5402 5401 5401 5401 5401 5403 5406 5410 5411 5413 5418 5425 5432 5438 5446 5451 5461 5466 5471 5475 5477 5479 5480 5482 5491 5498 5506 5515 5518 5524 5527 5533
5412 5408 5406 5405 5406 5407 5406 5403 5400 5398 5397 5397 5394 5391 5390 5392 5391 5392 5394 5396 5395 5397 5403 5407 5415 5424 5433 5438 5446 5450 5458 5458 5461 5470 5468 5471 5473 5481 5488 5495 5502 5507 5512 5518
5406 5402 5401 5400 5401 5401 5401 5398 5395 5391 5389 5390 5387 5384 5382 5383 5384 5383 5385 5386 5385 5388 5390 5395 5401 5411 5418 5426 5433 5436 5442 5444 5449 5455 5453 5457 5462 5468 5473 5479 5485 5492 5498 5504
5404 5401 5399 5399 5398 5396 5395 5392 5389 5386 5382 5381 5381 5377 5376 5376 5376 5376 5377 5378 5378 5380 5384 5383 5390 5399 5404 5413 5417 5422 5431 5432 5436 5440 5443 5447 5450 5454 5460 5467 5472 5478 5484 5491
5400 5398 5397 5396 5394 5392 5389 5386 5383 5380 5378 5376 5374 5371 5371 5370 5370 5371 5372 5373 5373 5374 5375 5377 5381 5386 5393 5399 5406 5410 5418 5421 5423 5429 5433 5436 5440 5443 5447 5454 5459 5465 5471 5478
5394 5393 5392 5390 5388 5385 5382 5380 5378 5373 5370 5370 5369 5368 5367 5367 5367 5368 5370 5370 5370 5371 5372 5373 5374 5378 5384 5388 5395 5401 5404 5406 5412 5418 5423 5426 5430 5434 5438 5443 5447 5454 5460 5466
5388 5387 5385 5383 5380 5378 5376 5373 5370 5367 5365 5364 5364 5364 5364 5364 5365 5366 5367 5368 5369 5371 5370 5372 5373 5374 5377 5378 5384 5389 5394 5398 5403 5411 5415 5419 5421 5425 5429 5433 5438 5443 5449 5454
5384 5381 5379 5377 5374 5371 5368 5365 5363 5362 5362 5361 5360 5360 5361 5361 5362 5363 5364 5365 5365 5367 5367 5369 5369 5372 5373 5374 5377 5381 5387 5391 5395 5402 5405 5409 5413 5417 5420 5424 5428 5433 5438 5443
5379 5377 5374 5371 5368 5364 5361 5360 5359 5360 5361 5359 5359 5358 5358 5359 5360 5360 5361 5362 5363 5364 5364 5365 5367 5368 5368 5371 5372 5375 5379 5381 5385 5390 5397 5403 5407 5412 5413 5416 5420 5423 5428 5432
5373 5370 5368 5365 5363 5360 5360 5359 5360 5359 5359 5359 5358 5358 5357 5357 5358 5358 5359 5361 5362 5361 5362 5361 5363 5365 5366 5367 5369 5370 5372 5374 5378 5382 5387 5393 5397 5403 5406 5409 5413 5416 5419 5423
5370 5367 5365 5363 5361 5360 5359 5359 5359 5359 5359 5359 5358 5357 5356 5355 5355 5356 5357 5359 5360 5360 5360 5359 5360 5362 5362 5363 5364 5366 5368 5370 5372 5374 5378 5382 5387 5391 5395 5401 5405 5408 5411 5414
5372 5368 5366 5364 5363 5361 5361 5360 5359 5358 5358 5357 5356 5356 5356 5355 5355 5355 5356 5357 5359 5358 5358 5358 5357 5358 5358 5359 5360 5361 5363 5365 5367 5370 5372 5375 5379 5383 5386 5390 5393 5398 5401 5405
5374 5371 5368 5366 5365 5363 5361 5360 5359 5358 5357 5356 5355 5355 5355 5355 5355 5355 5356 5356 5357 5357 5356 5356 5355 5355 5355 5355 5356 5357 5359 5361 5362 5364 5367 5369 5372 5375 5378 5381 5384 5386 5389 5393
5377 5373 5370 5368 5366 5364 5362 5361 5359 5358 5357 5356 5355 5354 5354 5354 5354 5354 5354 5355 5354 5354 5355 5355 5354 5354 5354 5354 5354 5355 5356 5357 5359 5360 5362 5363 5365 5368 5371 5373 5375 5377 5380 5382
5378 5376 5373 5371 5369 5367 5365 5362 5360 5358 5357 5355 5354 5353 5353 5352 5352 5351 5352 5353 5352 5353 5353 5352 5352 5352 5352 5352 5352 5353 5353 5354 5355 5356 5357 5359 5360 5362 5363 5365 5367 5369 5371 5373
5381 5379 5376 5374 5372 5369 5366 5364 5362 5360 5358 5356 5355 5353 5352 5351 5350 5350 5349 5350 5350 5351 5350 5350 5350 5350 5350 5350 5350 5350 5350 5351 5351 5351 5352 5353 5354 5355 5356 5358 5360 5362 5364 5366
5383 5380 5378 5376 5374 5372 5370 5367 5364 5362 5360 5358 5356 5354 5353 5352 5350 5349 5348 5348 5349 5348 5348 5349 5348 5348 5348 5348 5348 5348 5348 5348 5348 5348 5348 5348 5349 5350 5351 5352 5353 5354 5356 5357